カタログに戻る

S-Net B

S-NET B

運用中アマチュア無線SSO
NORAD 43187·PAYLOAD·🇩🇪 Germany

打ち上げ Feb 1, 2018 から Vostochny Cosmodrome

Loading…

次のパス (今後24時間)

TLE

最新Source: AMSAT

元期: Sep 14, 2026, 04:35 UTC

1 43187U 18014H   26257.19103938  .00003450  00000-0  17612-3 0  9995
2 43187  97.5258 161.4092 0010362  69.4341 290.8003 15.17340993472257

AllMySatでS-Net Bをリアルタイム追跡

Download on the App Store